Wind_Speed
6 3 3 2 0 2 3 3 2 2 3 3 3 3 4 5 4 6 5 5 6 6 7 8 8 8 7 8 8 8 9 9 9 9 10 11 10 7 9 10 9 7 7
3 5 3 2 0 1 2 2 2 2 2 4 4 3 5 4 4 5 6 7 5 5 7 8 8 9 9 9 9 9 9 9 9 9 9 9 7 6 6 7 6 6 4
5 6 4 2 2 2 1 0 1 1 1 2 3 5 6 5 6 7 9 6 6 8 8 9 10 10 9 9 8 8 8 9 10 10 8 8 7 6 6 6 6 7 7
6 4 3 3 3 3 1 1 1 1 1 2 4 5 7 7 9 10 10 7 8 9 9 9 9 9 8 9 9 9 10 11 12 11 11 7 6 6 5 5 5 6 6
5 5 4 5 5 4 2 1 2 2 1 2 5 6 8 10 10 13 10 7 8 9 8 9 8 8 9 9 10 11 11 11 12 13 9 7 5 5 5 5 5 5 6
7 4 5 5 5 4 2 2 2 2 2 5 7 9 11 13 12 13 9 8 8 8 8 8 8 10 11 11 12 11 11 10 9 10 8 6 5 5 5 5 5 5 5
8 5 6 5 5 4 3 3 3 2 4 8 10 12 13 13 13 11 10 9 8 7 7 8 9 10 11 11 11 11 11 8 7 8 8 6 6 6 7 7 7 6 6
7 5 6 5 4 4 3 3 3 4 6 10 12 13 14 12 12 12 10 9 6 6 8 10 11 12 13 13 13 12 11 8 8 7 7 6 7 7 7 7 6 6 5
5 5 6 5 4 4 3 3 4 5 7 11 13 13 13 12 12 11 10 7 5 6 8 9 12 13 13 13 13 13 10 8 7 7 6 6 6 8 7 7 8 8 8
5 6 7 6 4 4 4 5 5 7 9 11 13 12 13 13 12 11 8 6 5 6 8 10 12 13 13 13 13 12 10 6 8 6 6 6 7 8 8 8 9 9 10
5 5 6 5 4 4 4 6 7 8 10 12 12 11 12 12 11 9 6 3 4 6 8 11 12 13 12 13 13 12 10 10 8 7 5 5 7 8 9 9 9 11 12
8 6 5 5 5 5 5 6 7 9 11 12 10 11 12 12 9 7 3 1 4 7 9 11 14 13 14 18 15 12 11 11 9 7 6 6 6 8 9 10 11 12 12
11 8 6 6 6 5 5 7 8 9 12 12 9 9 10 10 8 5 3 2 4 7 7 10 14 18 14 12 12 11 10 12 11 9 9 9 10 10 9 11 12 13 14
11 10 7 6 5 4 5 7 8 10 11 11 9 10 11 11 9 6 4 4 7 11 13 15 16 14 13 12 11 10 10 10 15 8 9 10 11 12 12 11 10 13 16
11 10 9 7 6 6 7 8 8 10 12 12 10 10 11 11 10 8 5 5 6 8 10 13 14 15 14 13 12 11 10 9 11 12 9 10 11 13 14 14 14 14 13
10 12 11 9 8 8 8 8 9 11 12 12 11 11 12 12 11 8 6 7 7 8 9 12 14 16 17 14 12 13 12 10 10 13 11 9 12 13 14 15 16 16 16
12 13 13 10 10 9 9 10 10 11 13 14 13 12 11 11 11 10 9 8 7 7 9 10 11 12 12 13 13 12 12 11 11 11 13 14 9 10 13 14 15 16 17
10 13 14 13 12 11 10 10 11 11 12 13 13 12 12 11 11 10 9 8 7 7 8 10 11 11 12 14 15 15 14 14 13 12 12 13 16 16 10 14 14 15 15
11 14 15 15 14 13 11 11 10 10 11 13 13 13 12 11 10 11 10 7 7 7 6 8 9 11 13 14 14 15 14 14 14 14 13 12 13 15 17 14 14 15 16
11 13 16 16 14 12 12 11 10 11 11 12 13 13 13 12 12 12 11 9 8 7 5 6 9 10 12 14 15 15 14 13 13 13 14 14 14 14 16 19 18 14 16
11 12 14 15 13 13 12 11 12 12 14 14 14 14 14 13 12 12 11 10 8 6 5 6 8 10 13 17 16 14 10 11 13 14 13 15 15 15 16 16 17 22 19
10 12 15 15 14 14 13 12 12 12 13 14 15 13 14 13 13 13 12 11 9 8 6 6 7 10 14 18 18 17 21 23 16 15 16 14 15 17 17 16 17 18 19
13 13 14 14 14 14 14 13 13 13 14 14 13 13 13 13 13 14 13 12 10 9 8 8 9 11 14 16 17 17 18 13 23 21 15 17 16 16 18 16 17 18 19
12 15 16 16 15 15 16 15 12 10 11 11 13 15 15 15 15 16 15 13 12 11 10 10 12 13 15 16 16 16 17 19 20 21 25 14 15 16 16 18 18 18 18
16 15 18 18 18 18 18 16 14 12 12 12 14 14 16 16 16 17 16 14 13 13 11 12 14 15 16 16 17 18 18 20 19 20 19 26 20 14 17 17 19 19 19
17 16 17 19 20 20 20 19 16 15 15 15 15 13 15 18 18 18 17 15 14 13 13 14 16 17 19 18 18 19 20 21 22 21 22 21 19 24 19 19 19 19 20
Wind_Direction
245 168 179 169 47 10 359 11 9 32 42 37 67 63 60 64 56 60 57 55 55 47 31 39 42 43 35 27 20 9 357 350 339 329 327 329 335 319 305 310 333 344 331
219 178 190 201 306 341 357 356 0 48 59 85 84 77 82 98 90 84 77 88 60 55 61 60 54 47 38 28 19 9 360 351 337 329 330 328 325 316 303 304 305 308 354
199 192 191 210 261 304 313 4 354 1 61 97 96 106 109 100 95 94 98 102 75 74 67 63 53 42 35 28 21 11 0 347 333 328 332 322 320 320 319 314 295 282 277
202 202 212 246 271 273 288 336 313 270 35 76 97 105 108 109 105 107 111 93 78 74 66 56 50 43 31 22 12 2 358 349 337 331 338 339 341 341 342 335 327 311 305
215 214 227 259 274 272 273 258 258 280 125 118 111 119 115 112 123 120 124 93 80 71 62 54 44 33 24 14 6 0 354 349 343 336 354 354 5 6 1 354 344 332 327
222 222 226 251 270 277 273 265 253 199 143 123 129 131 127 120 125 124 117 104 90 74 63 48 31 20 15 11 7 1 356 353 351 347 10 17 17 16 19 21 11 9 9
225 221 243 257 263 273 278 255 228 193 141 136 139 135 136 133 134 125 117 102 84 71 54 38 23 15 13 8 3 2 5 3 0 356 12 19 26 25 26 32 38 31 26
239 236 239 238 245 258 240 231 210 169 142 137 144 141 141 139 134 121 113 100 87 61 40 26 17 10 8 4 0 2 5 2 4 6 22 27 34 37 34 27 24 17 7
256 241 235 234 233 221 214 201 183 160 148 146 145 143 141 142 133 123 115 109 88 56 33 24 16 10 5 3 4 1 4 359 360 6 28 35 29 28 19 8 3 351 345
268 242 236 236 224 214 191 181 167 161 155 149 149 151 148 145 134 130 123 110 72 36 22 14 10 7 6 6 7 4 359 3 358 3 16 16 13 11 4 359 352 342 337
250 246 237 241 233 215 189 176 169 168 160 153 150 154 153 146 145 140 129 102 43 15 6 6 5 5 7 8 8 5 360 355 355 357 1 1 357 357 354 349 342 339 334
246 248 244 232 222 212 191 179 176 171 164 157 158 165 160 158 157 150 143 92 10 355 355 359 359 360 6 5 3 4 359 344 346 351 342 343 344 353 348 343 341 332 326
245 243 242 234 218 207 188 183 180 175 169 164 165 170 169 169 175 170 195 294 336 336 344 349 355 6 5 356 354 355 349 339 339 342 337 333 335 344 348 341 334 326 324
246 243 244 244 229 206 194 191 184 175 171 172 171 178 182 186 190 203 235 300 334 351 345 353 351 352 355 354 349 347 342 336 326 341 328 327 330 333 333 330 325 326 326
242 235 235 237 225 206 195 189 189 181 182 186 179 185 190 199 206 218 244 295 315 329 340 339 341 345 350 353 352 346 342 330 316 319 325 322 324 328 327 326 324 324 326
246 225 228 228 224 212 204 198 190 187 187 195 192 193 196 207 215 228 246 267 290 318 332 338 342 344 350 351 348 345 341 334 322 321 316 320 321 324 322 322 322 323 326
249 220 221 222 221 215 206 199 195 192 193 200 200 203 207 211 217 228 242 264 288 314 330 333 342 342 346 348 348 340 337 333 329 322 322 318 301 316 318 319 319 323 321
257 219 219 222 220 218 213 206 202 201 201 209 211 211 215 218 222 233 247 266 294 310 325 333 343 348 350 349 349 348 341 333 328 323 322 322 321 312 320 317 317 317 315
235 219 216 219 220 218 213 213 210 208 210 218 218 220 222 225 229 236 247 259 273 293 314 333 342 351 355 354 351 347 341 334 330 325 320 316 318 319 317 317 315 315 316
233 220 218 218 220 221 218 211 210 210 216 222 223 226 225 228 232 235 243 249 263 276 303 329 342 350 357 359 353 347 344 340 335 327 321 318 319 317 319 318 316 314 324
224 221 219 218 222 221 219 217 220 216 214 210 219 225 227 230 233 237 242 246 254 267 288 320 334 347 355 355 346 347 352 351 347 335 328 323 320 319 322 322 325 321 320
214 215 215 217 219 217 220 220 218 221 224 223 220 225 230 233 235 239 245 248 249 255 273 305 329 342 346 349 356 352 359 342 350 345 333 326 323 322 321 321 323 320 321
218 216 217 221 221 221 224 224 220 224 224 227 228 225 229 232 236 241 244 247 248 254 269 297 316 328 337 344 346 353 1 343 334 338 341 329 328 324 320 321 320 320 322
225 221 222 226 225 224 227 228 223 225 228 229 231 231 230 230 234 242 244 245 248 252 267 291 307 315 328 332 336 340 344 343 342 333 332 335 325 321 320 320 320 319 320
232 232 230 229 228 227 230 232 227 229 230 239 245 249 247 240 238 241 244 244 248 255 268 287 300 304 315 318 323 328 333 338 340 337 329 323 326 321 319 319 319 321 321
233 234 231 231 232 231 233 235 237 236 242 251 246 241 246 247 240 240 243 244 248 259 270 280 292 298 304 308 311 316 324 335 339 338 332 322 320 317 323 322 321 320 319
Height
3168 3169 3169 3169 3169 3169 3169 3168 3168 3168 3168 3169 3169 3170 3170 3170 3170 3171 3171 3170 3170 3170 3169 3168 3168 3167 3166 3165 3164 3164 3164 3163 3161 3160 3158 3157 3158 3158 3158 3159 3156 3155 3155
3169 3169 3170 3170 3169 3169 3168 3168 3168 3168 3168 3169 3169 3170 3171 3171 3171 3171 3171 3172 3171 3171 3171 3170 3169 3168 3167 3166 3166 3166 3167 3164 3160 3159 3158 3158 3158 3157 3158 3157 3156 3156 3157
3169 3169 3169 3169 3169 3169 3169 3168 3168 3168 3169 3169 3170 3169 3170 3171 3172 3172 3173 3173 3172 3172 3171 3171 3171 3170 3170 3169 3169 3168 3166 3163 3160 3159 3159 3158 3157 3157 3157 3156 3156 3156 3156
3170 3170 3170 3170 3169 3169 3169 3168 3168 3168 3169 3169 3169 3170 3170 3171 3172 3173 3174 3174 3173 3173 3174 3173 3173 3172 3171 3170 3169 3167 3165 3162 3160 3158 3158 3157 3156 3156 3156 3156 3156 3155 3154
3169 3169 3169 3170 3170 3169 3168 3168 3168 3169 3169 3170 3170 3170 3171 3172 3173 3174 3174 3174 3175 3175 3175 3175 3174 3173 3172 3170 3168 3166 3164 3162 3159 3157 3158 3157 3157 3156 3156 3155 3155 3154 3153
3168 3168 3168 3169 3169 3169 3168 3169 3169 3169 3170 3171 3171 3171 3172 3174 3174 3175 3175 3175 3176 3176 3176 3176 3175 3173 3171 3170 3168 3166 3165 3163 3161 3158 3158 3157 3157 3156 3156 3155 3155 3154 3153
3167 3168 3168 3168 3168 3168 3169 3169 3169 3170 3170 3171 3171 3172 3173 3174 3174 3175 3176 3177 3177 3178 3177 3176 3175 3174 3173 3171 3169 3168 3165 3163 3161 3159 3158 3158 3157 3156 3156 3155 3154 3153 3152
3166 3167 3167 3167 3168 3168 3168 3169 3169 3170 3171 3171 3171 3173 3174 3175 3175 3177 3178 3178 3179 3179 3178 3177 3176 3174 3173 3171 3169 3167 3165 3163 3161 3159 3158 3158 3158 3157 3156 3155 3154 3153 3152
3167 3167 3167 3167 3168 3167 3168 3169 3170 3171 3171 3172 3173 3174 3175 3176 3177 3178 3179 3179 3180 3179 3179 3178 3176 3175 3173 3171 3169 3167 3165 3163 3161 3160 3159 3159 3158 3158 3156 3155 3154 3153 3152
3167 3167 3167 3167 3168 3168 3168 3169 3170 3171 3172 3173 3174 3175 3176 3177 3179 3179 3180 3180 3180 3180 3179 3178 3177 3175 3173 3171 3169 3167 3165 3164 3162 3161 3160 3160 3159 3158 3157 3155 3154 3153 3152
3167 3167 3167 3168 3168 3168 3168 3169 3170 3171 3172 3174 3176 3177 3177 3179 3179 3180 3180 3181 3181 3181 3180 3179 3177 3175 3173 3171 3169 3167 3165 3163 3162 3162 3161 3160 3159 3158 3156 3155 3154 3153 3152
3168 3167 3168 3167 3167 3168 3169 3169 3170 3171 3173 3174 3176 3177 3178 3179 3180 3181 3182 3182 3181 3181 3180 3179 3177 3175 3172 3170 3169 3167 3165 3163 3162 3161 3161 3160 3159 3158 3156 3155 3153 3153 3152
3167 3167 3167 3167 3167 3168 3168 3169 3170 3172 3173 3175 3177 3178 3179 3180 3181 3181 3182 3182 3181 3180 3180 3178 3176 3173 3174 3172 3170 3168 3165 3163 3161 3160 3160 3159 3157 3156 3156 3154 3153 3152 3151
3165 3166 3167 3167 3168 3168 3169 3169 3171 3172 3173 3175 3176 3178 3179 3180 3181 3181 3181 3181 3181 3181 3179 3177 3177 3175 3174 3172 3169 3167 3166 3163 3160 3161 3159 3158 3156 3155 3154 3154 3154 3151 3149
3163 3165 3166 3167 3167 3167 3168 3168 3170 3171 3173 3175 3176 3177 3178 3179 3180 3181 3182 3182 3181 3181 3180 3178 3176 3174 3173 3171 3169 3167 3165 3163 3161 3158 3158 3157 3155 3154 3152 3152 3150 3149 3148
3162 3163 3164 3166 3166 3167 3167 3168 3169 3170 3172 3174 3175 3176 3176 3178 3180 3181 3181 3181 3180 3180 3179 3177 3176 3174 3171 3170 3168 3166 3164 3163 3161 3157 3156 3156 3154 3153 3151 3150 3149 3147 3145
3160 3161 3163 3164 3165 3166 3166 3167 3168 3169 3170 3172 3173 3175 3176 3177 3179 3179 3179 3180 3180 3179 3178 3178 3176 3174 3172 3170 3168 3166 3164 3162 3160 3158 3155 3152 3153 3152 3150 3149 3147 3145 3143
3158 3160 3161 3163 3164 3165 3165 3166 3167 3168 3169 3171 3172 3173 3175 3176 3177 3177 3178 3178 3179 3178 3178 3177 3175 3173 3171 3169 3167 3165 3163 3161 3158 3157 3155 3153 3150 3149 3149 3147 3146 3143 3142
3156 3157 3159 3161 3162 3163 3164 3165 3166 3167 3168 3170 3171 3172 3173 3174 3175 3176 3177 3177 3177 3177 3176 3176 3175 3173 3171 3168 3166 3164 3162 3160 3158 3156 3154 3153 3151 3148 3146 3146 3144 3141 3139
3154 3156 3157 3159 3160 3162 3163 3164 3164 3165 3166 3167 3169 3170 3171 3172 3174 3175 3175 3176 3176 3176 3175 3175 3174 3172 3170 3168 3166 3163 3161 3159 3157 3155 3153 3151 3150 3148 3145 3141 3139 3139 3136
3152 3153 3155 3157 3159 3160 3162 3162 3163 3164 3164 3164 3165 3167 3169 3170 3172 3173 3173 3174 3175 3175 3174 3174 3173 3171 3169 3168 3166 3163 3162 3159 3156 3154 3151 3149 3147 3145 3143 3140 3137 3133 3131
3150 3151 3153 3155 3157 3158 3160 3161 3161 3162 3163 3163 3163 3164 3166 3168 3170 3171 3172 3173 3173 3173 3173 3173 3172 3170 3169 3166 3164 3162 3158 3155 3154 3153 3150 3147 3145 3142 3140 3138 3136 3133 3130
3147 3149 3151 3153 3154 3156 3158 3158 3159 3160 3160 3161 3161 3162 3163 3165 3167 3168 3169 3170 3171 3171 3172 3171 3170 3169 3168 3166 3164 3163 3159 3158 3153 3150 3149 3145 3143 3140 3138 3135 3133 3131 3128
3145 3146 3148 3150 3152 3153 3155 3156 3157 3158 3159 3160 3160 3160 3160 3162 3164 3165 3167 3168 3169 3169 3169 3169 3169 3168 3166 3165 3164 3161 3159 3157 3154 3149 3143 3144 3141 3138 3135 3132 3130 3128 3125
3141 3143 3145 3147 3148 3150 3152 3154 3155 3155 3156 3157 3157 3157 3158 3160 3161 3163 3164 3165 3166 3167 3167 3167 3166 3166 3165 3163 3162 3160 3158 3155 3153 3150 3145 3137 3137 3136 3133 3130 3127 3124 3122
3138 3140 3141 3143 3145 3147 3149 3151 3152 3153 3154 3154 3154 3154 3156 3157 3158 3160 3161 3163 3164 3164 3164 3164 3164 3163 3163 3161 3159 3158 3156 3153 3149 3146 3144 3140 3136 3131 3130 3127 3124 3121 3119